Location: Harbor Side
(32.6101°N, 117.0814°W)
Time: 07:30:22
(UTC+00:00)

Okean 1 Rocket - Pass Details

Date: 21 April 2021
Orbit: 606 x 634 km, 82.5° (Epoch: 13 May)

Event Time Altitude Azimuth Distance (km) Brightness Sun altitude
Rises 12:06:43 0° 348° (NNW) 2,924 6.7 -13.7°
Reaches altitude 10° 12:09:00 10° 344° (NNW) 2,009 5.8 -13.3°
Maximum altitude 12:13:21 55° 267° (W) 753 3.1 -12.4°
Drops below altitude 10° 12:17:38 10° 189° (S) 1,980 5.3 -11.6°
Sets 12:19:52 0° 185° (S) 2,877 6.2 -11.1°
